Dewpoint
60 59 60 59 59 59 58 59 60 61 61 62 62 62 62 62 63 63 63 62 62 62 62 62 62 62 62 61 62 62 63 63 62 61 60 61 60 60 62 62 62 62 61 60 59 58 57 55 57 61 62 62 62 62 63 63 63 63 64 64 65 64 64
60 59 59 58 57 57 57 57 58 59 59 60 61 61 61 61 62 63 63 63 62 63 63 63 63 62 61 61 62 62 63 63 63 63 62 61 61 60 61 60 61 61 61 61 60 60 57 55 56 57 58 61 61 61 62 63 63 64 64 64 64 65 64
57 57 57 56 56 56 56 56 57 57 57 58 58 59 60 60 60 61 62 62 62 63 64 64 63 63 63 63 63 63 63 63 63 63 62 62 62 61 61 61 60 60 60 59 59 59 58 58 56 56 58 58 57 60 61 61 62 63 63 63 63 64 64
56 55 55 55 55 55 55 55 56 56 56 57 57 58 58 59 59 61 62 62 62 63 63 63 63 63 63 63 63 63 63 63 63 62 62 62 62 61 61 61 60 60 59 58 58 59 58 57 56 56 57 59 58 58 60 61 61 62 63 63 63 62 63
55 55 54 54 54 53 53 53 54 55 55 56 57 57 57 57 58 58 59 58 59 59 60 60 61 62 62 63 63 63 63 63 63 63 62 62 62 62 61 62 61 61 61 60 60 59 59 58 58 56 56 57 58 59 60 60 62 62 62 62 63 62 62
54 54 54 53 54 53 52 52 53 53 54 55 56 56 56 55 56 55 55 54 55 56 57 59 60 60 61 62 62 62 63 63 63 62 62 62 62 61 61 62 62 61 61 61 61 60 60 60 59 57 58 58 57 58 60 60 60 61 62 62 62 63 62
53 53 53 53 53 52 51 51 51 52 53 54 55 56 55 54 52 50 51 50 50 51 53 55 55 57 59 61 61 61 62 62 63 62 62 62 62 62 62 61 61 61 61 61 61 61 60 59 58 58 57 57 58 57 59 60 61 60 61 63 63 63 63
52 52 52 52 50 49 49 50 50 52 52 52 53 54 54 52 48 47 49 48 49 49 49 49 50 52 53 56 59 61 62 62 62 62 62 62 62 62 62 62 61 61 61 61 62 61 61 60 59 59 58 56 56 57 56 59 60 60 60 61 62 62 62
52 50 49 49 48 48 48 49 50 51 51 51 52 52 53 51 47 46 46 47 47 48 47 46 47 49 50 53 55 56 58 60 61 61 61 61 61 61 61 61 61 61 61 61 62 62 62 61 60 60 59 57 55 54 56 56 58 59 61 60 61 62 62
49 48 47 47 47 47 47 47 48 49 50 51 51 52 51 51 46 45 44 44 45 46 45 45 45 46 47 50 50 52 53 54 56 58 60 61 61 61 61 61 61 61 61 62 61 62 62 61 61 60 60 58 58 56 54 54 56 57 59 61 59 61 62
48 48 47 46 46 45 45 45 46 46 47 48 49 50 50 50 46 45 43 43 43 43 43 43 43 43 44 46 47 49 50 51 52 55 57 60 61 62 61 61 61 61 61 61 61 62 62 62 61 61 60 60 59 57 56 55 55 57 58 60 61 60 62
48 48 47 46 45 45 44 44 44 45 45 46 46 47 47 48 48 45 43 42 42 41 41 41 41 42 42 45 46 46 46 47 49 51 53 56 59 61 61 61 61 61 61 61 61 62 61 61 61 61 61 60 60 59 58 56 54 56 59 58 60 62 62
47 47 47 46 44 44 44 44 44 44 44 45 45 45 45 45 46 45 42 41 41 40 40 40 40 40 41 42 42 43 43 44 46 47 50 53 55 58 60 60 61 61 61 61 61 61 61 61 61 61 61 60 59 59 58 57 55 55 58 59 60 61 62
45 46 46 46 45 44 44 45 44 44 43 43 44 44 45 44 44 44 42 41 40 40 40 40 40 40 40 40 40 41 42 42 43 44 47 49 52 54 56 59 60 61 61 61 61 61 61 61 61 61 61 60 59 59 59 58 56 56 56 57 59 61 62
45 45 45 46 46 45 44 44 44 43 42 42 43 43 43 44 44 43 41 40 39 39 39 39 39 39 39 39 40 41 42 42 43 44 45 47 49 51 53 55 58 60 61 61 61 61 61 61 61 60 61 60 59 59 59 58 57 56 55 56 58 60 61
45 44 44 45 46 46 45 44 44 43 43 42 43 43 42 42 43 42 40 39 39 39 39 39 39 39 39 39 40 40 41 42 43 44 45 46 47 50 52 53 56 59 60 60 60 60 61 61 61 61 60 61 60 60 60 59 58 56 55 55 57 58 60
44 44 44 44 44 45 46 45 45 43 43 42 42 42 43 42 41 41 40 39 39 38 38 39 39 39 39 39 39 40 41 42 43 44 45 46 47 50 52 53 55 58 60 59 59 60 60 60 60 60 60 60 60 60 60 59 59 57 56 55 57 57 59
42 42 42 42 42 43 44 45 46 44 43 42 42 41 42 42 40 39 39 39 39 38 38 39 39 38 39 39 39 40 41 42 43 44 45 47 50 51 53 54 56 57 59 59 59 59 60 60 60 60 59 60 59 60 60 59 59 59 57 56 57 58 58
42 42 42 41 40 41 41 42 44 45 44 42 42 41 41 41 41 39 39 39 39 38 38 39 39 38 38 39 39 40 41 43 44 45 47 48 50 51 51 50 51 54 57 59 59 59 59 59 60 59 59 59 59 59 59 59 59 58 58 58 57 56 57
42 42 42 42 41 40 40 41 41 43 44 42 41 40 40 40 41 40 39 39 39 38 38 39 39 38 38 39 39 40 41 42 44 45 46 47 47 47 48 49 48 50 51 51 53 56 59 59 59 59 59 59 59 59 59 58 59 59 58 58 58 58 57
42 43 43 42 42 41 40 40 40 41 42 41 40 40 40 39 39 39 39 39 39 39 38 38 39 38 38 39 39 39 40 41 43 43 44 44 46 46 47 47 48 49 50 50 50 49 47 48 55 59 59 59 59 59 59 59 59 59 58 57 57 57 57
40 40 42 42 41 41 40 40 40 40 41 41 42 40 39 39 39 38 38 38 38 38 38 39 39 39 38 38 39 39 39 41 41 42 43 43 43 43 44 45 46 47 49 49 47 47 46 45 45 48 55 59 59 58 58 58 58 58 58 57 57 57 57
37 37 38 40 41 41 40 40 40 39 39 40 40 41 39 39 39 38 38 38 38 38 38 39 41 40 40 39 39 39 39 40 39 40 41 41 41 41 42 42 45 48 46 46 46 44 42 42 43 44 45 48 56 58 58 58 58 58 57 57 57 56 55
35 35 35 36 38 40 40 39 39 39 39 39 39 40 39 39 39 39 38 38 37 38 38 39 38 38 38 38 39 39 39 39 39 38 39 39 40 40 40 41 42 44 44 45 44 43 41 41 40 41 41 43 46 51 57 57 57 58 57 57 57 56 55
34 34 34 34 35 36 38 39 38 37 38 39 39 39 39 39 39 38 38 38 37 38 38 39 37 38 38 38 39 39 39 39 39 38 38 38 39 39 39 40 41 42 42 42 43 42 41 40 40 40 40 41 43 44 45 54 57 57 57 57 56 56 56
33 33 33 34 34 34 34 35 36 36 35 37 37 37 38 37 38 38 38 37 37 37 37 38 37 37 37 37 38 38 38 38 39 38 38 38 38 38 39 40 40 41 41 44 44 41 39 39 40 40 41 43 46 46 42 42 45 56 58 57 57 56 56
33 33 33 33 33 33 33 34 35 35 35 35 35 35 35 35 35 35 36 36 36 36 36 38 37 37 37 37 37 38 37 37 38 38 38 38 38 38 38 39 40 40 39 39 40 39 38 38 38 39 42 46 49 51 49 44 43 44 49 57 58 57 57
33 33 33 32 32 32 33 33 34 35 34 34 34 34 33 33 33 34 34 34 35 35 36 37 36 37 37 37 37 38 37 37 37 37 38 38 38 38 38 39 39 39 38 38 39 38 38 37 38 39 43 46 48 52 55 55 53 53 53 55 58 58 58
33 33 33 32 32 32 32 32 33 33 34 33 34 34 34 32 32 31 32 33 34 33 34 36 36 36 37 37 38 38 37 36 36 36 37 37 38 38 38 38 38 38 37 37 38 37 37 38 38 39 42 44 46 49 53 54 50 50 55 57 58 59 59
33 32 32 32 32 32 32 32 32 35 31 31 32 33 35 33 32 31 32 32 33 33 33 35 36 36 36 37 38 37 37 36 36 36 36 37 37 37 37 38 38 37 37 36 37 36 36 38 39 39 40 42 44 47 50 52 44 43 43 43 43 43 42
33 33 32 32 31 31 32 31 32 34 31 31 31 31 34 34 32 32 32 32 34 33 33 35 36 36 36 37 38 37 37 36 36 36 36 36 36 36 37 40 41 37 36 36 36 35 36 37 38 38 39 40 42 44 48 51 50 47 41 42 43 43 44
33 32 32 32 32 32 31 32 32 31 32 31 32 31 35 33 32 31 31 32 36 33 33 35 36 36 36 36 37 37 37 36 36 35 35 35 36 36 36 37 39 38 37 36 35 35 35 37 37 38 39 39 40 41 44 49 50 50 49 49 49 49 48
34 32 32 32 32 33 34 31 32 31 31 31 31 31 31 32 31 30 31 31 32 33 34 35 36 36 36 36 37 38 37 36 36 36 35 35 35 35 35 36 37 36 35 35 35 35 35 36 37 38 39 38 37 39 42 44 46 49 51 50 49 48 48
33 33 32 32 33 33 32 31 31 31 31 31 30 30 30 31 31 30 30 31 32 32 34 35 36 36 37 37 37 37 36 37 36 36 35 35 35 35 35 35 35 36 35 35 35 35 35 35 36 38 38 37 38 39 39 40 43 46 50 48 47 47 47
35 35 35 33 32 32 32 32 32 31 30 30 30 30 30 31 30 30 30 31 32 32 34 37 36 37 37 37 37 37 36 36 37 37 35 34 34 35 35 35 35 36 35 35 35 35 35 35 36 38 37 35 36 37 43 45 46 49 48 47 47 47 46
34 35 34 33 32 31 31 32 31 32 31 30 30 30 30 30 30 30 30 30 31 32 32 34 36 36 37 37 37 36 36 36 36 37 35 34 34 35 35 35 35 36 35 35 35 35 35 35 36 36 35 35 36 37 41 44 45 47 46 46 46 45 45
34 33 34 33 33 31 31 31 31 32 30 30 30 30 31 31 30 30 30 30 31 31 32 33 35 36 37 36 36 36 36 36 36 36 36 34 35 34 34 34 35 34 35 34 34 35 35 35 35 35 35 35 36 38 41 41 41 43 42 42 42 42 42